Location: *
(32.8140°S, 174.6161°E)
Time: 21:28:30
(UTC+00:00)

SAR-Lupe-1 - Pass Details

Date: 10 December 2019
Orbit: 480 x 486 km, 98.1° (Epoch: 01 July)

Event Time Altitude Azimuth Distance (km) Brightness Sun altitude
Rises 15:46:47 0° 169° (S) 2,582 8.6 -14.7°
Reaches altitude 10° 15:48:52 10° 169° (S) 1,694 7.6 -14.3°
Maximum altitude 15:52:31 84° 256° (WSW) 499 4.0 -13.8°
Enters shadow 15:55:12 17° 344° (NNW) 1,290 5.7 -13.3°
